RH
16 17 21 25 24 23 22 23 25 26 27 28 27 28 29 30 31 34 35 36 34 35 36 37 38 43 46 49 58 55 47 40 28 13 13 12 14 24 54 92 94 93 95
17 16 18 21 26 24 25 25 26 27 28 29 29 28 30 31 32 35 38 38 34 33 28 26 22 17 15 22 37 61 43 39 31 28 28 30 41 42 42 62 80 94 96
20 19 18 23 23 26 26 26 27 27 28 28 27 27 29 32 33 37 38 32 28 26 19 17 19 25 27 29 33 39 40 37 36 36 36 40 40 48 75 94 96 94 94
24 23 22 23 24 25 28 27 27 27 26 28 25 26 30 32 38 39 31 27 21 17 20 26 28 27 28 30 33 37 41 43 40 42 40 54 82 92 94 94 93 95 93
26 27 26 26 26 26 29 29 27 27 25 28 28 28 34 39 38 29 28 24 20 26 27 27 26 26 27 29 32 36 42 42 44 48 48 72 94 94 95 95 94 94 94
26 29 33 30 29 27 30 31 30 27 22 30 32 32 38 40 33 31 28 27 28 29 28 26 25 25 25 27 29 33 37 40 47 54 62 78 95 95 94 94 94 92 92
27 31 39 35 32 29 29 33 32 27 24 33 35 42 45 43 43 41 34 31 32 30 27 25 24 24 24 25 27 31 35 37 45 60 74 95 94 94 93 93 91 90 91
33 35 39 41 40 36 30 30 32 30 22 27 33 42 50 51 51 48 43 37 36 32 28 26 26 25 25 25 26 29 33 35 35 45 78 93 94 90 90 89 88 88 86
38 40 44 42 45 40 35 34 32 30 26 21 21 30 34 36 46 49 49 44 40 37 34 28 27 27 26 26 27 28 32 35 35 61 92 93 91 89 87 85 84 87 96
46 48 50 46 51 44 39 38 35 30 25 24 21 20 19 20 30 25 36 40 44 46 36 28 28 28 28 29 31 36 37 38 38 60 91 92 90 87 84 85 94 92 96
60 58 54 51 51 45 40 42 39 34 26 22 20 19 19 19 21 24 27 31 32 31 29 28 28 28 32 35 38 38 32 28 31 39 78 86 85 82 80 81 96 94 93
62 63 63 57 51 46 46 43 44 37 26 21 19 18 18 20 23 28 31 31 30 27 27 28 28 32 37 37 32 25 22 22 23 24 54 77 81 81 81 80 75 86 77
63 64 62 60 55 51 48 49 47 35 24 20 18 18 19 22 28 32 34 36 36 30 28 27 31 33 31 26 24 27 25 23 20 18 59 86 88 88 87 85 80 79 78
67 67 63 57 53 53 54 56 48 35 21 18 18 18 22 28 31 30 33 39 39 41 42 38 23 16 17 20 22 20 18 18 18 19 21 26 44 51 75 88 85 82 80
76 67 60 57 52 50 55 51 39 23 25 22 20 22 25 26 27 31 35 40 48 53 49 33 31 29 31 26 26 25 25 27 26 26 28 29 35 69 91 90 86 84 84
82 75 70 70 59 62 60 48 29 21 20 21 22 24 26 29 30 35 42 40 30 26 36 35 32 34 36 36 43 52 54 54 52 50 52 52 82 92 92 90 89 88 89
100 86 68 69 66 64 44 26 23 22 22 25 27 29 29 32 39 32 18 16 19 22 28 30 35 33 37 46 57 61 64 60 54 53 61 77 96 95 93 91 88 91 90
76 77 77 75 62 39 27 24 25 26 28 29 29 33 36 23 13 15 16 16 16 23 39 52 42 39 45 57 66 64 64 69 57 58 59 63 67 95 98 91 90 95 81
80 79 74 57 39 29 27 29 30 30 29 33 35 19 12 14 16 16 16 17 23 35 47 62 60 60 64 66 62 60 64 64 62 62 60 68 72 72 89 96 96 94 92
76 64 51 34 30 30 32 32 30 34 36 18 12 15 16 17 17 17 18 28 41 49 52 62 67 86 99 82 80 87 78 90 97 70 65 68 63 58 68 72 69 64 60
57 44 35 34 35 34 32 34 37 19 12 15 15 18 19 19 20 25 40 45 60 62 75 84 100 96 83 95 92 98 91 99 93 85 91 73 64 62 61 59 64 69 68
43 37 36 36 34 32 39 27 10 14 15 16 18 20 21 22 28 38 51 68 96 95 94 88 86 81 100 93 89 91 93 92 100 90 93 80 70 68 70 71 86 83 76
39 38 36 33 36 34 13 12 14 15 16 19 21 21 25 34 40 44 46 58 79 80 83 79 80 100 93 82 98 95 92 93 92 80 85 88 72 74 74 74 71 92 96
38 36 34 38 20 11 14 15 16 18 21 23 24 30 38 37 38 48 99 93 81 72 63 77 94 80 71 74 81 82 90 86 74 66 72 82 93 90 73 61 59 63 70
34 37 32 12 14 16 15 16 18 22 24 26 37 48 38 32 43 100 100 93 75 72 80 76 70 66 66 69 73 81 76 80 80 69 74 94 85 81 70 61 65 69 74
38 20 13 15 16 17 19 21 22 23 29 41 44 38 43 52 100 100 100 91 78 91 85 69 62 63 69 72 76 82 87 88 92 98 77 94 81 96 89 72 71 74 75
Wind_Speed
13 11 10 8 7 6 6 6 6 6 6 6 6 6 6 5 6 7 7 8 7 7 7 7 7 8 9 9 10 11 12 13 14 15 15 15 16 15 14 14 17 16 15
12 10 8 7 6 6 5 6 6 6 6 6 6 6 5 6 6 6 7 7 6 5 6 6 7 7 8 10 11 12 13 14 16 16 16 17 17 17 17 16 14 15 16
12 11 9 7 6 5 5 5 6 6 6 6 5 6 6 6 6 5 6 5 5 5 5 6 7 7 9 11 11 13 15 16 17 18 18 18 17 17 15 15 17 19 18
13 11 9 8 6 5 5 5 6 6 6 6 5 6 7 7 6 5 4 4 5 5 5 5 7 9 11 12 13 15 16 16 17 17 18 18 17 17 17 18 19 18 17
13 10 9 7 6 6 5 6 6 6 6 6 6 7 7 6 6 4 4 3 4 4 5 6 9 12 13 15 16 18 18 18 18 19 19 17 16 17 19 20 20 19 20
13 11 9 7 6 6 5 5 6 6 6 8 7 7 6 6 5 3 1 2 2 3 5 8 11 14 16 18 19 20 19 19 20 20 19 18 17 18 20 19 20 20 21
13 11 9 7 6 6 5 6 6 6 7 8 8 7 7 6 5 3 2 2 1 4 7 11 15 17 19 20 21 21 21 20 20 20 19 17 19 20 20 21 21 21 21
13 11 9 6 6 5 5 5 6 6 6 9 7 7 5 7 8 6 6 5 5 5 8 13 17 20 21 22 23 23 23 23 24 22 20 18 20 21 22 23 23 23 24
13 11 9 7 6 5 5 6 6 6 6 7 7 5 4 4 6 8 9 9 9 9 12 15 18 21 22 23 24 25 24 24 24 22 21 22 23 24 25 25 26 25 24
14 11 10 7 6 5 4 5 5 5 6 5 5 4 4 4 3 3 7 9 11 13 14 18 20 22 23 24 25 25 25 25 25 24 23 25 26 27 28 28 27 25 26
15 12 9 8 6 5 5 6 5 6 5 5 4 4 4 3 3 5 6 6 9 14 18 20 22 24 24 26 25 27 28 28 29 29 28 28 28 28 29 30 30 27 27
14 11 8 7 7 6 5 4 4 4 3 3 4 4 4 4 4 5 10 14 17 21 22 22 23 25 27 25 28 31 31 31 32 32 31 30 29 30 30 30 31 31 31
12 9 7 6 7 6 5 5 4 3 3 3 3 3 5 5 6 8 12 17 21 26 27 27 27 29 26 31 33 33 34 34 35 33 29 27 27 28 28 29 29 30 31
10 6 6 7 6 5 5 3 3 4 5 3 3 3 5 7 10 12 15 19 25 26 30 32 31 29 32 33 33 34 34 33 34 34 34 33 31 30 29 28 28 28 29
10 10 7 6 5 5 4 5 5 3 4 4 3 4 6 9 12 14 17 19 22 23 31 30 28 31 30 30 30 31 32 32 32 32 32 32 32 30 28 27 27 27 28
16 14 11 9 7 8 8 7 5 3 4 4 4 5 8 11 14 16 19 22 23 24 25 31 31 30 29 29 29 29 29 29 30 30 29 28 27 26 27 26 26 26 27
12 8 10 13 10 10 8 7 5 3 4 6 6 8 10 14 17 20 22 23 23 25 28 31 31 30 32 31 31 30 30 29 30 29 27 25 25 25 25 25 23 25 25
13 11 14 14 13 10 8 6 5 3 4 6 8 12 15 17 20 21 22 23 24 23 26 31 33 34 33 32 33 33 31 28 29 27 26 24 22 22 22 22 22 24 22
15 16 16 14 9 10 8 5 1 2 5 8 12 15 17 18 20 21 22 22 22 22 23 27 32 33 35 34 37 33 31 32 28 24 25 22 21 20 20 21 24 23 23
19 17 14 12 10 8 5 3 2 4 9 11 14 16 18 19 20 22 21 21 20 21 24 27 32 32 32 36 33 32 35 27 26 26 28 27 28 23 20 21 22 22 21
16 15 14 12 9 6 4 2 3 7 10 12 15 16 17 19 20 19 18 17 20 23 25 27 25 31 35 31 29 29 35 29 35 34 30 31 30 24 21 20 20 20 19
17 14 12 10 8 5 1 5 6 8 11 13 14 16 17 18 18 16 14 14 16 21 25 25 26 28 25 29 31 33 33 34 35 31 35 35 28 26 22 20 20 18 18
17 14 11 8 5 2 3 5 7 10 12 14 16 17 17 17 16 16 17 20 20 22 20 21 22 21 28 28 28 29 29 27 30 34 31 31 26 24 21 18 18 18 15
15 12 9 6 3 2 5 7 9 11 13 15 17 17 18 18 17 17 19 23 23 21 18 18 19 23 24 24 25 25 27 29 29 28 26 29 20 24 28 25 21 16 17
13 9 6 4 2 3 7 9 11 12 15 16 16 17 19 18 16 14 19 22 23 18 18 18 19 20 20 21 21 24 24 26 30 30 19 20 27 28 28 20 13 15 15
10 7 5 2 2 5 8 11 13 15 15 16 17 17 16 16 13 15 17 21 20 20 23 22 18 17 18 17 17 18 20 23 25 26 21 30 30 28 23 20 28 19 13
Wind_Direction
172 168 164 159 158 156 151 149 148 144 141 131 126 122 118 110 101 92 90 91 84 80 68 51 43 39 31 23 14 4 357 350 346 345 341 336 331 328 328 332 333 330 329
176 173 171 166 163 159 156 152 150 147 149 137 128 126 125 118 110 99 97 91 81 68 55 50 41 34 22 13 5 357 348 342 339 338 337 335 333 333 331 329 321 320 322
178 178 176 169 163 166 162 158 157 153 152 145 134 129 129 128 121 110 103 87 74 68 58 55 37 24 9 359 351 344 338 334 331 328 326 325 323 320 325 331 332 331 324
180 183 176 170 166 166 168 165 162 159 156 152 141 137 134 131 124 116 101 92 80 76 59 40 16 -0 353 350 344 340 338 333 331 328 327 325 328 331 328 328 322 317 317
182 185 182 172 170 165 171 170 169 161 162 161 149 144 141 137 133 118 109 86 83 64 32 8 353 347 345 344 341 340 338 336 332 329 328 329 330 327 326 325 322 316 316
184 187 184 176 175 167 173 181 176 169 169 167 159 155 154 156 151 137 133 100 62 15 355 346 342 341 340 338 336 336 334 332 329 329 329 328 328 325 325 324 319 316 315
184 188 188 182 183 180 175 185 179 169 170 174 174 168 172 181 193 209 226 227 288 326 337 340 337 334 333 333 333 332 331 326 325 327 327 326 324 323 323 320 318 315 310
184 186 186 186 183 185 173 187 188 184 180 184 188 192 198 217 220 229 237 250 265 293 322 332 331 329 327 327 327 327 325 321 317 317 320 322 320 319 319 318 314 311 307
186 186 189 183 192 191 179 189 192 194 199 197 206 211 200 221 210 232 235 256 267 280 306 320 323 322 323 324 322 321 321 317 313 315 318 315 315 313 312 311 309 304 302
184 188 190 184 198 195 185 196 188 197 200 213 206 226 243 244 215 231 247 257 265 282 297 312 317 321 323 322 322 320 318 315 310 310 311 308 306 305 304 302 302 300 302
184 188 192 187 194 192 188 198 190 193 193 202 224 242 251 257 271 268 269 260 272 285 298 311 319 321 322 321 318 314 314 310 305 303 307 307 305 302 299 298 298 298 299
190 187 191 196 184 189 194 186 192 199 203 216 228 237 249 271 286 291 296 298 301 302 310 315 321 322 322 319 319 317 316 314 311 307 306 304 302 298 296 292 289 292 295
193 189 190 192 186 182 187 188 188 200 222 230 233 273 290 293 295 306 310 308 312 312 315 318 322 324 321 319 319 317 317 316 314 313 312 309 304 300 296 295 291 288 290
179 179 190 192 189 182 181 182 212 232 208 206 243 271 287 300 310 318 316 316 317 315 316 321 321 320 317 317 317 316 317 317 317 314 312 310 308 304 301 298 295 292 291
187 182 182 200 204 198 189 216 212 202 244 252 252 282 301 309 313 318 314 314 316 315 315 321 319 316 318 319 320 320 319 318 316 312 310 308 309 309 306 301 295 293 292
193 178 184 197 199 212 203 205 185 195 255 257 291 304 309 313 315 313 311 312 312 309 308 311 317 319 322 323 325 325 323 322 320 318 313 310 309 310 307 301 297 294 290
195 206 190 191 194 202 197 197 187 202 257 283 306 312 313 317 312 312 312 312 312 312 308 311 315 321 323 326 326 326 325 324 325 326 318 311 311 309 309 307 297 292 292
174 182 194 190 178 177 192 193 192 212 263 299 314 312 316 315 313 313 314 317 317 314 313 314 318 324 325 325 325 325 327 322 325 326 324 316 312 312 309 313 304 301 302
179 176 186 189 169 179 189 194 205 254 293 310 314 315 319 318 317 318 320 319 315 313 313 315 319 322 322 329 329 328 325 322 324 330 331 332 320 309 307 306 307 302 297
176 178 179 170 170 172 178 195 238 307 314 316 321 320 322 321 322 321 320 318 319 321 322 320 318 325 326 331 332 332 331 337 329 333 334 327 324 317 310 306 302 296 291
172 172 173 170 170 170 183 227 305 322 320 318 325 324 323 323 323 322 322 324 323 325 322 321 319 319 326 331 331 323 325 319 321 327 328 326 326 328 323 326 310 296 287
169 166 170 168 166 171 244 297 329 324 317 324 325 326 328 325 323 325 323 321 324 324 323 319 319 322 321 319 321 325 323 322 322 322 320 320 324 321 322 326 328 309 289
163 162 169 167 168 218 269 315 330 321 325 328 329 329 325 325 330 327 319 315 320 323 320 317 319 317 319 328 328 326 324 322 315 319 320 315 323 319 316 316 326 319 300
158 159 169 172 202 269 312 324 332 327 328 331 327 326 327 328 329 327 323 316 320 323 323 327 322 324 325 326 321 319 317 315 317 325 331 318 332 321 317 315 317 310 303
160 166 177 180 201 298 322 324 329 330 330 325 327 333 325 323 323 337 315 317 323 329 326 331 331 329 327 327 325 320 327 327 330 337 354 336 330 330 334 341 350 332 310
167 168 174 170 308 321 324 330 331 325 324 329 330 328 323 322 333 324 318 318 326 332 331 334 335 333 331 331 330 327 325 323 326 331 344 331 335 337 331 336 339 346 333